Showing default

TRANSIT 5B-1, 670

Orbit data source: Space-Track

TRANSIT 5B-1, 670 is a payload satellite owned by USN BuWeps (US) in LEO that was launched on Sat, 28 Sep 1963 UTC via a THOR ABLESTAR launch vehicle from the Air Force Western Test Range (AFWTR). Payloads include a variety of satellites, spacecraft, and rockets equipped with specific instruments for various scientific and technological missions. These include communications satellites like Starlink; space stations such as the ISS; scientific satellites like the Hubble; Earth observation satellites from companies like Planet Labs, Umbra, and HawkEye 360; GPS; miniature CubeSats for education and research; and military/defense satellites.

Loading next visibility...
TRANSIT 5B-1 details
Identifier
670, 1963-038B
Orbit
LEO
Last TLE update17 hours ago
Origin
Flag of USUSN BuWeps (US)
ManufacturerAPL
MissionDefense Navigation
Bus & MotorTRANSIT 5, Unknown motor
Mass69 kg wet, 69 kg dry
Launch date (UTC)
1963-09-28 (61 years ago)
Launch vehicle
THOR ABLESTAR
Launch site
Air Force Western Test Range (AFWTR)
Object type
Payload
Rocket body
Debris
Shape & HBROct Cyl + 1 Rod, 31 m
Radar Cross Section0.334 m², Medium (>0.1 m² and < 1m²)

Expand to show TLE details & history

TLE from 17 hours ago
0 TRANSIT 5B-1
1 00670U 63038B   24355.93115378  .00000153  00000-0  24501-3 0  9993
2 00670  89.9820 334.3110 0042521 147.5399 212.8377 13.44577993  1180
Epoch: 2024-12-20T22:20Z
Definitive object data (Epoch: 2024-12-20T22:20:51.686Z)
Latitude-0.00003°
Longitude-90.89395°
Altitude1,121.954 km
Speed7.279 km/s
True Right ascension22h 17m 14s
True Declination0° 00' 00"
Sunlit
Object was in daylight at TLE epoch
Visualization TLE readout
Latitude88.24172°
Longitude88.52145°
Altitude1,087.315 km
Speed7.325 km/s
Apparent Right ascension02h 03m 51s
Apparent Declination35° 14' 08"
Sunlit
Object is in daylight
Visualization observer readout
Local Sidereal Time13:54:49
Azimuth358.091° N
Elevation-14.82°
Doppler factor1
Orbital elements
Apogee altitude1,121.084 km
Perigee altitude1,057.579 km
Semi-major axis7,467.469 km
Eccentricity0.0042521
Inclination89.982°
RAAN334.311°
Arg. of periapsis147.5399°
True anomaly212.57466°
Mean anomaly212.8377°
Eccentric anomaly212.70606°
Mean motion3.36344 °/min
BSTAR0.00024501
Orbital period107.03 mins
Loading maneuver chart data...

TRANSIT 5B-1 Visibility forecast

Observer location: undefined°, undefined

Span
Click to sort rows by Start time (UTC) header in descending order
Start Az.
Max El. time (UTC)
Max El. Az.
Max El.
End time (UTC)
End Az.
8 mins2024-12-21 21:42:37.381Z112.99° SE2024-12-21 21:46:37.381Z73.943° E19.117°2024-12-21 21:50:37.381Z33.669° NE
12 mins2024-12-21 23:27:37.381Z190.374° SSW2024-12-21 23:32:37.381Z251.837° W42.16°2024-12-21 23:39:37.381Z352.091° N
11 mins2024-12-22 10:40:37.381Z13.938° NNE2024-12-22 10:45:37.381Z86.532° E40.268°2024-12-22 10:51:37.381Z166.488° S
8 mins2024-12-22 12:28:37.381Z323.998° NNW2024-12-22 12:31:37.381Z291.779° WNW20.434°2024-12-22 12:36:37.381Z240.363° WSW
|